Temp
14 13 14 16 17 17 17 17 17 19 19 18 17 17 19 20 20 20 22 23 25 26 25 25 24 23 21 20 19 18 17 17 16 15 15 15 15 14 13 13 12 12 12 11
13 14 16 17 16 17 17 17 16 19 19 19 17 17 18 19 19 21 22 23 24 24 25 24 24 23 20 20 18 17 17 17 16 15 15 15 15 14 14 13 12 12 12 12
15 17 18 17 16 16 16 16 17 18 17 18 17 17 18 19 20 21 23 23 24 23 23 22 22 19 18 17 16 17 17 16 15 15 15 15 14 14 13 13 12 11 12 12
14 17 17 17 16 17 16 17 18 17 16 14 17 14 17 18 18 19 22 24 25 24 21 20 19 17 17 16 17 17 16 15 15 15 14 14 14 14 13 12 12 12 12 12
14 16 16 17 17 17 17 19 18 17 15 16 17 14 16 18 18 19 19 25 25 23 20 19 17 17 16 16 17 16 15 15 15 14 14 14 14 13 13 13 12 12 12 12
15 17 18 18 19 19 19 18 16 15 14 13 15 15 17 16 19 20 20 23 22 19 17 17 17 16 16 16 16 16 15 15 14 13 13 13 13 13 13 12 12 12 12 12
14 15 18 18 16 17 16 14 12 12 12 12 17 15 18 17 17 19 20 21 19 15 17 17 16 16 16 16 16 15 15 15 14 13 13 13 13 13 13 12 12 12 12 12
13 13 16 17 17 16 16 15 12 13 12 15 17 15 17 18 20 22 23 21 19 16 15 16 16 16 17 16 16 16 15 14 14 13 13 13 13 13 13 12 12 12 12 12
13 14 17 18 18 19 15 15 14 15 15 14 15 16 19 18 19 18 17 17 16 16 15 16 16 17 17 16 16 16 15 14 14 13 13 13 13 13 12 12 12 12 12 12
14 14 17 18 18 19 17 16 15 13 14 14 15 17 18 21 22 19 15 14 15 15 15 16 16 17 17 16 16 15 14 14 14 13 13 13 13 13 12 12 12 12 12 12
11 13 16 16 17 16 14 16 14 15 12 13 15 15 16 20 20 18 15 15 15 16 16 17 17 17 17 16 15 15 14 14 14 13 13 13 13 13 12 12 12 12 12 12
8 9 13 15 17 19 18 16 15 16 14 14 14 15 18 18 18 17 16 17 16 16 17 17 17 17 17 16 15 15 14 14 14 13 13 13 13 13 12 12 12 12 12 12
8 8 11 14 16 17 17 17 15 13 12 15 15 15 18 18 19 17 16 17 17 17 17 17 17 17 17 16 16 15 14 14 14 14 13 13 13 12 12 12 13 12 12 12
9 6 8 12 14 15 16 17 17 15 13 13 18 19 20 19 17 15 16 17 17 16 16 17 17 17 17 16 16 15 15 14 14 14 13 13 13 12 12 12 13 13 12 12
7 5 7 9 11 13 15 17 17 17 18 16 17 18 19 18 17 15 18 17 16 16 17 17 18 17 17 16 16 15 15 14 14 14 13 13 13 12 12 13 13 13 13 12
6 5 7 8 13 14 14 15 17 18 18 17 18 17 18 19 18 16 18 17 16 17 17 18 18 18 17 17 16 16 15 15 14 14 13 13 13 13 12 12 13 13 13 12
6 5 6 7 10 11 13 16 16 17 19 18 17 20 18 18 17 16 17 19 19 19 19 19 19 18 18 17 17 16 15 15 14 14 14 13 13 13 13 12 12 13 12 12
7 6 6 6 8 12 16 17 18 16 17 18 19 19 18 18 22 22 23 24 21 21 20 20 19 19 18 18 17 16 16 15 15 14 14 13 13 13 13 13 13 13 13 12
8 7 6 7 8 12 16 12 12 16 16 17 17 19 18 21 19 20 22 26 26 24 23 22 21 20 19 19 17 17 16 15 15 14 14 14 13 13 13 13 13 13 13 13
8 7 8 7 8 12 10 11 11 10 16 10 10 15 17 18 18 18 24 25 23 22 23 22 22 20 20 19 18 17 16 16 15 15 15 14 13 13 13 13 13 13 13 13
5 5 6 6 7 9 9 10 10 15 12 9 10 10 11 18 22 27 27 27 26 24 24 23 22 21 21 19 18 17 17 16 16 15 15 14 14 13 13 13 13 13 13 13
7 6 6 7 7 10 9 9 9 8 8 9 9 9 10 14 21 26 27 27 26 23 22 22 23 22 21 20 19 18 17 17 16 16 15 15 14 13 13 13 13 13 13 13
6 6 6 7 8 9 9 9 9 9 8 9 8 9 10 10 17 21 26 27 26 25 23 24 23 23 22 21 20 19 18 17 17 16 15 15 14 14 13 13 13 13 13 13
6 6 6 7 10 8 8 9 9 8 8 8 9 9 11 11 16 21 23 26 26 24 23 23 23 23 23 22 21 20 19 18 17 16 16 15 15 14 13 13 13 13 13 13
4 5 6 6 8 8 10 9 8 9 9 9 10 11 11 12 18 21 24 24 26 26 23 23 23 24 24 23 22 21 20 19 18 17 16 16 15 14 14 13 13 13 13 14
5 5 6 6 7 6 7 8 8 9 8 10 9 11 13 13 17 21 24 25 25 25 24 23 23 24 24 23 22 22 20 20 19 17 16 16 16 15 15 14 13 13 13 13
Height
1454 1464 1449 1440 1449 1456 1461 1467 1467 1458 1458 1463 1460 1459 1447 1440 1441 1437 1431 1428 1423 1421 1420 1419 1421 1426 1432 1437 1445 1448 1457 1462 1464 1465 1466 1465 1464 1463 1461 1459 1457 1456 1456 1454
1454 1436 1433 1441 1448 1453 1457 1462 1462 1452 1455 1459 1455 1455 1443 1437 1432 1430 1426 1419 1416 1416 1414 1416 1417 1419 1425 1433 1439 1448 1453 1459 1462 1463 1463 1462 1461 1460 1457 1455 1454 1453 1452 1451
1427 1407 1431 1436 1441 1449 1450 1453 1455 1454 1456 1453 1454 1452 1444 1428 1426 1423 1419 1416 1412 1412 1411 1413 1413 1418 1424 1433 1442 1449 1452 1457 1459 1460 1460 1460 1459 1457 1455 1453 1452 1451 1450 1448
1424 1421 1423 1429 1430 1435 1445 1441 1447 1452 1463 1477 1452 1475 1448 1433 1426 1418 1409 1408 1408 1409 1411 1411 1413 1418 1427 1436 1443 1448 1452 1455 1457 1457 1458 1458 1457 1456 1454 1451 1450 1449 1448 1447
1407 1409 1417 1419 1419 1427 1431 1435 1443 1452 1461 1464 1459 1473 1443 1435 1429 1416 1408 1404 1404 1405 1408 1409 1413 1420 1430 1437 1442 1446 1451 1453 1454 1455 1457 1457 1456 1455 1453 1451 1449 1447 1446 1446
1403 1402 1407 1406 1416 1423 1429 1438 1449 1455 1463 1474 1459 1467 1438 1437 1420 1413 1404 1403 1402 1402 1406 1411 1417 1424 1432 1439 1442 1445 1449 1451 1452 1454 1455 1455 1455 1453 1452 1450 1447 1445 1445 1446
1405 1405 1401 1403 1416 1422 1431 1448 1475 1478 1477 1471 1444 1459 1427 1415 1409 1404 1401 1401 1402 1406 1404 1410 1416 1423 1431 1437 1441 1445 1448 1449 1452 1453 1454 1454 1454 1452 1451 1449 1446 1445 1445 1446
1409 1416 1399 1393 1400 1414 1421 1433 1455 1472 1471 1453 1432 1442 1423 1400 1396 1397 1397 1398 1400 1404 1408 1410 1417 1423 1431 1436 1440 1443 1446 1448 1451 1453 1454 1453 1453 1452 1450 1448 1446 1445 1445 1446
1398 1399 1383 1386 1391 1400 1422 1427 1427 1441 1441 1451 1434 1417 1401 1394 1393 1394 1394 1394 1398 1402 1407 1411 1418 1424 1431 1435 1439 1443 1445 1448 1450 1452 1453 1453 1452 1452 1450 1448 1447 1446 1446 1447
1386 1396 1378 1384 1389 1393 1397 1411 1435 1440 1449 1453 1432 1420 1410 1391 1388 1388 1390 1391 1396 1402 1406 1412 1419 1425 1431 1435 1439 1442 1446 1448 1450 1451 1452 1452 1452 1452 1451 1449 1448 1447 1447 1448
1391 1388 1382 1380 1380 1391 1406 1408 1416 1421 1438 1446 1443 1426 1391 1383 1382 1385 1386 1390 1395 1399 1404 1410 1418 1425 1430 1435 1439 1442 1445 1447 1450 1451 1451 1452 1452 1452 1451 1449 1448 1448 1448 1448
1402 1399 1389 1381 1373 1377 1382 1392 1398 1409 1423 1428 1429 1423 1379 1378 1378 1381 1382 1387 1395 1399 1404 1410 1417 1423 1429 1434 1438 1441 1444 1447 1449 1450 1451 1452 1452 1452 1451 1449 1449 1449 1448 1449
1407 1405 1398 1388 1381 1376 1377 1380 1389 1403 1413 1420 1430 1421 1377 1377 1376 1380 1384 1386 1392 1398 1405 1410 1417 1422 1427 1432 1436 1440 1443 1446 1448 1449 1451 1452 1452 1452 1452 1450 1450 1450 1450 1451
1409 1409 1403 1387 1380 1377 1383 1382 1385 1397 1417 1415 1396 1396 1382 1378 1380 1381 1381 1387 1392 1397 1403 1409 1415 1420 1426 1431 1435 1438 1442 1445 1447 1449 1451 1452 1453 1453 1453 1452 1452 1452 1453 1453
1414 1414 1402 1393 1385 1384 1378 1374 1377 1381 1386 1399 1392 1392 1382 1378 1376 1375 1377 1385 1392 1397 1402 1406 1412 1418 1424 1429 1433 1437 1441 1444 1447 1449 1451 1452 1453 1454 1455 1453 1454 1455 1455 1456
1417 1414 1404 1394 1376 1380 1381 1376 1371 1374 1379 1384 1384 1385 1372 1371 1375 1376 1375 1382 1388 1393 1398 1403 1409 1415 1421 1426 1431 1435 1439 1443 1446 1449 1451 1452 1454 1455 1456 1456 1455 1456 1457 1458
1416 1417 1412 1404 1390 1385 1382 1363 1372 1372 1367 1375 1387 1367 1371 1373 1373 1373 1374 1377 1381 1387 1392 1398 1404 1411 1418 1423 1428 1433 1437 1442 1445 1448 1450 1452 1454 1456 1457 1458 1458 1458 1459 1460
1408 1412 1412 1408 1397 1388 1358 1347 1355 1366 1364 1366 1365 1364 1366 1365 1363 1364 1366 1370 1376 1383 1390 1396 1402 1409 1415 1421 1426 1432 1436 1440 1444 1447 1450 1453 1455 1457 1459 1460 1460 1461 1461 1462
1403 1409 1411 1407 1399 1373 1353 1363 1368 1361 1364 1362 1363 1360 1359 1359 1363 1364 1364 1366 1368 1375 1382 1389 1397 1405 1412 1418 1424 1430 1435 1439 1442 1446 1449 1452 1455 1457 1459 1461 1462 1463 1464 1464
1400 1404 1405 1405 1401 1380 1371 1366 1363 1365 1368 1369 1368 1362 1357 1360 1371 1361 1356 1362 1367 1375 1382 1388 1395 1403 1410 1415 1421 1427 1432 1436 1439 1443 1448 1451 1454 1457 1459 1461 1463 1465 1466 1467
1399 1407 1406 1405 1404 1383 1376 1362 1355 1363 1379 1370 1369 1365 1363 1355 1349 1346 1351 1357 1363 1368 1377 1385 1392 1398 1406 1412 1418 1423 1429 1432 1437 1442 1447 1450 1453 1457 1460 1462 1464 1466 1468 1469
1391 1395 1402 1402 1398 1385 1375 1366 1376 1384 1375 1372 1366 1363 1359 1352 1347 1345 1347 1351 1358 1364 1374 1381 1388 1395 1402 1409 1414 1420 1424 1431 1436 1440 1445 1449 1452 1456 1459 1463 1465 1468 1470 1471
1395 1395 1396 1398 1386 1381 1381 1381 1378 1377 1375 1368 1364 1357 1354 1348 1341 1343 1343 1347 1353 1358 1367 1374 1382 1390 1398 1404 1410 1415 1421 1427 1433 1438 1442 1446 1450 1454 1458 1461 1465 1467 1470 1473
1393 1396 1393 1394 1380 1383 1377 1376 1376 1374 1368 1364 1359 1352 1346 1341 1337 1339 1342 1343 1349 1354 1361 1369 1377 1385 1390 1397 1405 1411 1417 1424 1430 1435 1440 1444 1447 1451 1456 1460 1464 1467 1470 1473
1398 1396 1394 1391 1383 1377 1373 1373 1372 1366 1361 1356 1351 1347 1341 1336 1330 1333 1338 1341 1344 1349 1356 1363 1369 1377 1384 1391 1400 1406 1413 1419 1426 1432 1437 1441 1445 1449 1453 1458 1461 1465 1469 1472
1396 1393 1393 1391 1386 1386 1379 1375 1372 1367 1360 1355 1351 1343 1337 1333 1326 1329 1332 1337 1341 1345 1351 1358 1366 1374 1380 1387 1394 1401 1407 1414 1420 1426 1432 1437 1441 1446 1450 1454 1459 1462 1467 1470
Wind_Speed
14 8 20 28 20 7 10 14 10 8 3 6 7 8 18 22 15 20 29 33 38 31 29 26 23 27 32 28 31 32 24 17 13 11 9 7 7 10 12 13 13 13 12 12
6 28 20 14 16 19 12 15 14 16 6 5 11 12 16 17 15 22 28 35 33 28 24 20 18 25 28 31 36 27 19 15 12 10 7 6 7 9 10 9 10 10 10 11
27 27 15 17 19 17 19 21 19 18 4 4 7 11 15 14 10 18 25 21 20 20 18 19 19 20 27 36 31 22 16 14 11 8 5 4 6 8 9 7 5 6 8 8
19 25 21 16 23 18 24 16 16 14 1 4 4 6 13 15 13 8 21 20 19 17 15 14 16 22 32 32 25 18 15 13 11 6 2 3 4 8 9 7 6 7 7 4
13 19 30 22 23 22 13 13 13 9 5 3 2 5 6 4 11 12 10 25 18 14 13 16 20 28 33 28 21 17 14 11 10 5 1 3 5 8 9 9 7 6 6 3
9 10 19 23 14 18 8 6 5 3 2 6 9 7 7 6 15 7 7 10 10 9 15 18 23 33 30 23 20 17 12 10 9 5 1 3 6 7 9 10 8 6 3 4
5 9 2 10 7 6 9 8 1 2 2 5 5 8 15 9 10 11 11 12 6 14 21 25 36 35 30 25 20 16 11 9 8 5 2 3 4 7 9 11 8 4 0 5
7 5 13 10 9 11 22 13 7 8 4 4 10 8 6 20 22 24 24 17 13 19 23 31 37 34 28 24 19 13 10 9 8 5 1 1 3 7 8 9 7 5 3 6
9 7 5 17 8 18 7 15 9 4 2 2 5 6 6 9 8 8 8 13 20 23 28 33 36 31 27 22 18 12 11 10 8 5 1 1 3 6 7 7 7 3 3 6
5 2 8 14 8 18 14 11 6 3 6 4 5 4 5 6 7 4 5 10 20 24 28 33 35 30 25 18 17 13 11 8 7 5 3 2 3 5 7 7 5 5 3 5
5 1 2 10 17 13 4 10 3 6 5 5 1 6 7 7 8 8 8 16 24 28 30 34 35 29 22 19 17 13 13 10 7 5 3 1 2 4 6 7 4 3 3 6
3 3 3 15 6 19 14 9 9 8 10 2 3 5 4 8 6 4 9 22 24 26 29 34 34 29 25 22 18 14 13 11 8 4 3 2 2 3 5 5 5 5 5 7
8 4 2 3 5 3 23 14 8 6 4 13 4 5 2 4 2 5 11 22 25 25 30 33 33 30 26 23 20 16 15 12 10 4 4 4 2 3 5 6 8 7 9 9
10 3 3 6 2 4 14 15 15 6 4 7 20 4 7 6 6 6 14 20 24 27 31 33 34 31 27 24 22 17 16 14 10 6 5 5 3 4 6 9 8 7 9 10
6 4 3 10 11 8 5 19 18 24 19 7 6 7 7 9 10 11 20 21 23 26 30 34 35 32 29 26 24 19 16 15 13 8 6 6 8 7 8 9 10 8 9 10
5 4 8 5 12 8 10 8 20 22 17 15 6 8 8 5 6 10 23 26 27 30 31 34 35 33 31 28 26 22 18 17 15 10 8 10 10 8 7 10 10 9 9 9
3 3 5 5 10 8 8 20 9 13 18 13 11 16 5 4 7 10 22 31 33 34 34 37 38 35 32 28 27 24 19 19 18 14 10 12 11 10 8 9 10 10 8 8
5 4 2 4 5 6 6 7 14 13 7 13 7 7 9 9 25 26 31 35 34 34 34 35 36 35 31 28 27 24 21 20 20 17 13 13 13 12 10 9 8 8 9 9
10 4 3 2 3 6 5 7 6 3 10 8 11 12 8 19 8 9 31 35 37 38 36 35 34 33 31 29 28 27 25 21 21 20 16 13 15 14 13 10 7 7 10 11
10 8 3 1 2 5 1 12 14 7 6 11 11 9 7 9 6 7 31 36 34 32 34 34 32 33 31 31 30 30 28 25 22 22 18 14 17 15 14 11 9 10 11 12
5 4 8 6 3 6 10 18 15 7 4 20 19 16 15 6 15 36 30 37 38 35 34 33 33 34 31 32 32 32 30 29 21 21 20 17 16 17 14 13 11 12 13 13
3 4 3 3 3 5 15 7 7 7 16 18 20 19 21 24 25 32 31 38 39 36 33 34 34 34 33 32 33 33 32 25 24 22 23 20 17 19 17 15 14 13 14 14
2 2 2 2 3 5 17 8 12 14 19 19 26 30 26 27 29 26 33 37 38 36 36 37 36 36 33 33 35 33 30 28 27 25 25 22 19 20 19 19 17 16 15 16
0 4 3 2 2 12 23 14 15 24 28 30 29 30 23 24 24 30 30 35 34 36 37 40 40 38 38 36 35 33 29 28 29 28 27 24 22 21 21 20 19 17 17 17
2 2 0 5 6 16 2 23 29 36 37 38 35 27 21 20 25 29 31 31 34 37 36 41 43 41 39 39 36 36 33 30 31 30 29 27 25 21 22 21 20 19 16 16
3 2 1 2 7 9 14 25 30 32 36 41 36 30 20 15 18 26 30 32 37 37 38 40 42 40 39 38 38 36 35 33 31 33 33 29 29 27 23 22 21 20 17 15
Wind_Direction
174 195 216 209 207 193 201 231 240 244 193 226 238 259 273 281 261 264 276 281 287 290 292 284 267 250 239 223 205 197 199 207 213 219 232 255 294 303 302 292 279 278 282 296
168 219 216 190 192 208 203 225 239 269 228 207 278 275 284 285 272 265 274 282 284 287 282 266 240 237 225 205 192 188 189 205 207 211 230 274 315 322 322 306 282 273 287 297
201 225 200 186 192 198 217 219 233 244 21 289 313 295 286 282 265 274 269 281 283 282 268 238 226 212 199 186 180 182 190 198 198 205 231 298 330 341 341 326 295 293 307 291
229 231 190 195 209 190 218 210 233 250 216 242 108 286 289 301 299 265 292 303 282 282 264 228 207 190 182 175 174 182 191 189 191 195 235 315 346 358 356 343 307 301 303 294
210 193 211 207 199 192 228 194 215 241 230 242 204 273 257 294 288 280 280 289 286 271 247 205 187 175 170 172 173 182 183 187 191 192 272 354 9 359 360 352 331 308 297 251
202 209 200 214 198 200 164 93 58 48 115 247 231 202 246 216 236 257 262 287 294 212 182 177 170 166 165 172 177 179 181 188 188 186 4 333 346 350 355 353 342 326 278 201
167 231 250 158 132 151 142 119 211 299 261 229 202 196 245 265 240 231 252 261 225 190 169 166 166 167 170 176 177 174 183 189 182 178 350 350 346 351 353 355 353 343 326 179
162 193 195 180 180 169 182 168 161 188 206 235 207 213 239 224 241 244 256 266 200 180 177 169 170 169 175 177 173 172 183 179 177 168 329 352 16 2 358 358 15 34 86 163
189 231 164 180 170 166 189 210 164 133 210 121 234 272 289 220 213 220 197 176 185 181 178 174 172 173 179 176 172 173 169 163 162 169 160 70 35 11 7 19 14 33 78 147
261 179 206 193 152 192 179 148 171 198 193 225 280 274 221 183 220 250 192 184 185 181 178 175 175 177 178 175 169 170 167 149 156 172 162 82 31 22 16 23 30 58 123 143
346 164 293 141 200 169 134 179 136 159 149 169 201 260 218 198 197 200 210 194 183 181 179 177 179 178 177 172 176 174 173 172 175 181 166 106 28 29 17 24 57 92 102 142
314 306 211 214 147 198 203 178 164 196 191 183 152 279 243 231 217 234 188 177 185 185 179 180 179 178 178 177 181 182 181 188 188 185 173 165 54 45 23 37 87 87 93 131
345 312 137 17 262 202 200 198 161 107 113 204 146 246 331 286 264 256 190 176 180 180 180 182 180 183 181 182 186 186 188 187 190 178 158 168 106 78 39 98 102 94 103 114
329 272 258 199 258 108 204 201 200 153 159 164 219 213 240 265 215 191 163 178 180 181 183 182 184 186 187 188 191 190 187 185 187 167 161 164 139 122 76 116 107 94 109 119
353 274 265 276 273 306 325 203 200 211 215 185 186 205 242 237 211 198 170 174 177 183 187 188 187 189 191 192 195 192 186 185 190 176 169 158 144 131 104 114 130 97 108 120
325 289 348 302 286 270 270 255 217 211 218 222 188 249 210 274 111 160 170 177 184 192 192 193 192 192 194 194 198 193 189 185 193 185 173 156 150 137 121 108 124 127 126 126
180 310 353 294 341 313 254 239 227 224 215 187 194 224 164 200 205 195 177 188 195 200 196 196 196 194 195 194 198 194 191 186 196 190 181 168 157 149 127 121 113 113 133 137
187 154 238 269 319 207 251 189 199 213 228 231 248 184 193 211 224 212 198 198 202 205 202 199 199 197 196 195 197 193 193 188 197 195 188 177 169 157 147 132 119 110 120 132
204 129 261 228 266 289 316 46 2 156 240 189 207 233 230 222 157 234 208 207 215 208 205 200 198 195 195 195 195 193 196 191 196 199 193 184 179 167 155 151 134 119 129 129
204 204 213 267 230 229 278 323 317 255 218 7 349 301 191 147 164 232 206 209 217 213 207 201 197 195 197 197 196 196 199 199 198 199 194 190 183 180 161 156 145 137 134 136
94 136 198 225 273 286 344 323 317 141 294 327 328 318 305 204 203 212 209 209 220 218 205 204 199 193 195 199 197 199 201 205 194 196 195 195 189 186 175 164 156 150 146 143
118 168 181 197 236 273 1 12 54 277 306 313 315 312 302 280 253 226 215 208 214 216 204 205 198 195 197 200 200 203 205 199 199 198 197 195 191 190 186 180 169 163 163 154
154 193 126 251 287 326 322 306 299 321 317 319 313 312 309 294 258 245 213 204 212 217 206 206 199 195 197 203 204 206 206 201 200 202 198 195 192 193 193 189 187 180 177 177
72 179 211 268 23 325 309 316 326 331 327 323 325 316 310 289 258 239 229 208 215 212 206 204 201 199 198 202 206 209 204 199 200 202 200 196 195 194 197 196 198 194 191 190
287 282 218 275 311 322 195 335 334 331 337 336 342 339 327 301 251 228 223 217 211 208 205 206 205 200 201 201 202 210 207 202 201 202 201 199 197 197 197 201 204 206 206 206
205 199 249 266 261 279 287 316 336 335 328 338 335 337 341 327 261 219 217 223 217 210 205 206 208 207 205 203 202 207 209 205 203 203 202 201 200 200 200 200 204 210 214 214